owner,sensor,date,latitude,longitude,vertical_datum,wind_speed,wind_to_direction,wind_speed_of_gust,qcFlag 
WAVCIS,ioos:station:WAVCIS:CSI09:1,2012-05-01T00:00:00Z,29.1015,-89.9782,0.0,4.912,117.0,,'11111222,11111222,99999999' 
WAVCIS,ioos:station:WAVCIS:CSI09:1,2012-05-01T01:00:00Z,29.1015,-89.9782,0.0,3.736,107.0,,'11111222,11111222,99999999' 
WAVCIS,ioos:station:WAVCIS:CSI09:1,2012-05-01T02:00:00Z,29.1015,-89.9782,0.0,3.662,102.0,,'11111222,11111222,99999999' 
WAVCIS,ioos:station:WAVCIS:CSI09:1,2012-05-01T03:00:00Z,29.1015,-89.9782,0.0,4.04,103.0,,'11111222,11111222,99999999' 
WAVCIS,ioos:station:WAVCIS:CSI09:1,2012-05-01T04:00:00Z,29.1015,-89.9782,0.0,4.231,103.0,,'11111222,11111222,99999999' 
WAVCIS,ioos:station:WAVCIS:CSI09:1,2012-05-01T05:00:00Z,29.1015,-89.9782,0.0,3.95,96.0,,'11111222,11111222,99999999' 
WAVCIS,ioos:station:WAVCIS:CSI09:1,2012-05-01T06:00:00Z,29.1015,-89.9782,0.0,3.714,90.0,,'11111222,11111222,99999999' 
WAVCIS,ioos:station:WAVCIS:CSI09:1,2012-05-01T07:00:00Z,29.1015,-89.9782,0.0,3.779,99.0,,'11111222,11111222,99999999' 
WAVCIS,ioos:station:WAVCIS:CSI09:1,2012-05-01T08:00:00Z,29.1015,-89.9782,0.0,6.245,116.0,,'11111222,11111222,99999999' 
WAVCIS,ioos:station:WAVCIS:CSI09:1,2012-05-01T09:00:00Z,29.1015,-89.9782,0.0,5.342,113.0,,'11111222,11111222,99999999' 
WAVCIS,ioos:station:WAVCIS:CSI09:1,2012-05-01T10:00:00Z,29.1015,-89.9782,0.0,4.426,99.0,,'11111222,11111222,99999999' 
WAVCIS,ioos:station:WAVCIS:CSI09:1,2012-05-01T11:00:00Z,29.1015,-89.9782,0.0,4.171,90.0,,'11111222,11111222,99999999' 
WAVCIS,ioos:station:WAVCIS:CSI09:1,2012-05-01T12:00:00Z,29.1015,-89.9782,0.0,3.314,58.0,,'11111222,11111222,99999999' 
WAVCIS,ioos:station:WAVCIS:CSI09:1,2012-05-01T13:00:00Z,29.1015,-89.9782,0.0,5.401,57.0,,'11111222,11111222,99999999' 
WAVCIS,ioos:station:WAVCIS:CSI09:1,2012-05-01T14:00:00Z,29.1015,-89.9782,0.0,5.994,66.0,,'11111222,11111222,99999999' 
WAVCIS,ioos:station:WAVCIS:CSI09:1,2012-05-01T15:00:00Z,29.1015,-89.9782,0.0,5.408,59.0,,'11111222,11111222,99999999' 
WAVCIS,ioos:station:WAVCIS:CSI09:1,2012-05-01T16:00:00Z,29.1015,-89.9782,0.0,5.532,67.0,,'11111222,11111222,99999999' 
WAVCIS,ioos:station:WAVCIS:CSI09:1,2012-05-01T17:00:00Z,29.1015,-89.9782,0.0,6.036,80.0,,'11111222,11111222,99999999' 
WAVCIS,ioos:station:WAVCIS:CSI09:1,2012-05-01T18:00:00Z,29.1015,-89.9782,0.0,4.848,89.0,,'11111222,11111222,99999999' 
WAVCIS,ioos:station:WAVCIS:CSI09:1,2012-05-01T19:00:00Z,29.1015,-89.9782,0.0,7.11,85.0,,'11111222,11111222,99999999' 
WAVCIS,ioos:station:WAVCIS:CSI09:1,2012-05-01T20:00:00Z,29.1015,-89.9782,0.0,7.52,84.0,,'11111222,11111222,99999999' 
WAVCIS,ioos:station:WAVCIS:CSI09:1,2012-05-01T21:00:00Z,29.1015,-89.9782,0.0,8.11,87.0,,'11111222,11111222,99999999' 
WAVCIS,ioos:station:WAVCIS:CSI09:1,2012-05-01T22:00:00Z,29.1015,-89.9782,0.0,9.61,85.0,,'11111222,11111222,99999999' 
WAVCIS,ioos:station:WAVCIS:CSI09:1,2012-05-01T23:00:00Z,29.1015,-89.9782,0.0,8.73,85.0,,'11111222,11111222,99999999' 
WAVCIS,ioos:station:WAVCIS:CSI09:1,2012-05-02T00:00:00Z,29.1015,-89.9782,0.0,9.32,84.0,,'11111222,11111222,99999999' 
WAVCIS,ioos:station:WAVCIS:CSI09:1,2012-05-02T01:00:00Z,29.1015,-89.9782,0.0,10.45,84.0,,'11111222,11111222,99999999' 
WAVCIS,ioos:station:WAVCIS:CSI09:1,2012-05-02T02:00:00Z,29.1015,-89.9782,0.0,10.03,79.0,,'11111222,11111222,99999999' 
WAVCIS,ioos:station:WAVCIS:CSI09:1,2012-05-02T03:00:00Z,29.1015,-89.9782,0.0,9.86,82.0,,'11111222,11111222,99999999' 
WAVCIS,ioos:station:WAVCIS:CSI09:1,2012-05-02T04:00:00Z,29.1015,-89.9782,0.0,7.27,91.0,,'11111222,11111222,99999999' 
WAVCIS,ioos:station:WAVCIS:CSI09:1,2012-05-02T05:00:00Z,29.1015,-89.9782,0.0,7.48,96.0,,'11111222,11111222,99999999' 
WAVCIS,ioos:station:WAVCIS:CSI09:1,2012-05-02T06:00:00Z,29.1015,-89.9782,0.0,8.75,106.0,,'11111222,11111222,99999999' 
WAVCIS,ioos:station:WAVCIS:CSI09:1,2012-05-02T07:00:00Z,29.1015,-89.9782,0.0,7.75,100.0,,'11111222,11111222,99999999' 
WAVCIS,ioos:station:WAVCIS:CSI09:1,2012-05-02T08:00:00Z,29.1015,-89.9782,0.0,8.5,110.0,,'11111222,11111222,99999999' 
WAVCIS,ioos:station:WAVCIS:CSI09:1,2012-05-02T09:00:00Z,29.1015,-89.9782,0.0,6.648,102.0,,'11111222,11111222,99999999' 
WAVCIS,ioos:station:WAVCIS:CSI09:1,2012-05-02T10:00:00Z,29.1015,-89.9782,0.0,7.79,111.0,,'11111222,11111222,99999999' 
WAVCIS,ioos:station:WAVCIS:CSI09:1,2012-05-02T11:00:00Z,29.1015,-89.9782,0.0,9.27,120.0,,'11111222,11111222,99999999' 
WAVCIS,ioos:station:WAVCIS:CSI09:1,2012-05-02T12:00:00Z,29.1015,-89.9782,0.0,6.644,127.0,,'11111222,11111222,99999999' 
WAVCIS,ioos:station:WAVCIS:CSI09:1,2012-05-02T13:00:00Z,29.1015,-89.9782,0.0,5.841,125.0,,'11111222,11111222,99999999' 
WAVCIS,ioos:station:WAVCIS:CSI09:1,2012-05-02T14:00:00Z,29.1015,-89.9782,0.0,6.504,129.0,,'11111222,11111222,99999999' 
WAVCIS,ioos:station:WAVCIS:CSI09:1,2012-05-02T15:00:00Z,29.1015,-89.9782,0.0,5.985,151.0,,'11111222,11111222,99999999' 
WAVCIS,ioos:station:WAVCIS:CSI09:1,2012-05-02T16:00:00Z,29.1015,-89.9782,0.0,6.723,146.0,,'11111222,11111222,99999999' 
WAVCIS,ioos:station:WAVCIS:CSI09:1,2012-05-02T17:00:00Z,29.1015,-89.9782,0.0,6.901,161.0,,'11111222,11111222,99999999' 
WAVCIS,ioos:station:WAVCIS:CSI09:1,2012-05-02T18:00:00Z,29.1015,-89.9782,0.0,5.507,159.0,,'11111222,11111222,99999999' 
WAVCIS,ioos:station:WAVCIS:CSI09:1,2012-05-02T19:00:00Z,29.1015,-89.9782,0.0,6.734,160.0,,'11111222,11111222,99999999' 
WAVCIS,ioos:station:WAVCIS:CSI09:1,2012-05-02T20:00:00Z,29.1015,-89.9782,0.0,6.144,161.0,,'11111222,11111222,99999999' 
WAVCIS,ioos:station:WAVCIS:CSI09:1,2012-05-02T21:00:00Z,29.1015,-89.9782,0.0,6.291,164.0,,'11111222,11111222,99999999' 
WAVCIS,ioos:station:WAVCIS:CSI09:1,2012-05-02T22:00:00Z,29.1015,-89.9782,0.0,5.221,171.0,,'11111222,11111222,99999999' 
WAVCIS,ioos:station:WAVCIS:CSI09:1,2012-05-02T23:00:00Z,29.1015,-89.9782,0.0,4.203,172.0,,'11111222,11111222,99999999' 
WAVCIS,ioos:station:WAVCIS:CSI09:1,2012-05-03T00:00:00Z,29.1015,-89.9782,0.0,3.867,168.0,,'11111222,11111222,99999999' 
WAVCIS,ioos:station:WAVCIS:CSI09:1,2012-05-03T01:00:00Z,29.1015,-89.9782,0.0,2.915,166.0,,'11111222,11111222,99999999' 
WAVCIS,ioos:station:WAVCIS:CSI09:1,2012-05-03T02:00:00Z,29.1015,-89.9782,0.0,0.687,143.0,,'11111222,11111222,99999999' 
WAVCIS,ioos:station:WAVCIS:CSI09:1,2012-05-03T03:00:00Z,29.1015,-89.9782,0.0,1.975,77.0,,'11111222,11111222,99999999' 
WAVCIS,ioos:station:WAVCIS:CSI09:1,2012-05-03T04:00:00Z,29.1015,-89.9782,0.0,6.056,119.0,,'11111222,11111222,99999999' 
WAVCIS,ioos:station:WAVCIS:CSI09:1,2012-05-03T05:00:00Z,29.1015,-89.9782,0.0,6.19,122.0,,'11111222,11111222,99999999' 
WAVCIS,ioos:station:WAVCIS:CSI09:1,2012-05-03T06:00:00Z,29.1015,-89.9782,0.0,4.554,127.0,,'11111222,11111222,99999999' 
WAVCIS,ioos:station:WAVCIS:CSI09:1,2012-05-03T07:00:00Z,29.1015,-89.9782,0.0,5.347,132.0,,'11111222,11111222,99999999' 
WAVCIS,ioos:station:WAVCIS:CSI09:1,2012-05-03T08:00:00Z,29.1015,-89.9782,0.0,3.722,154.0,,'11111222,11111222,99999999' 
WAVCIS,ioos:station:WAVCIS:CSI09:1,2012-05-03T09:00:00Z,29.1015,-89.9782,0.0,3.371,159.0,,'11111222,11111222,99999999' 
WAVCIS,ioos:station:WAVCIS:CSI09:1,2012-05-03T10:00:00Z,29.1015,-89.9782,0.0,2.659,160.0,,'11111222,11111222,99999999' 
WAVCIS,ioos:station:WAVCIS:CSI09:1,2012-05-03T11:00:00Z,29.1015,-89.9782,0.0,1.834,141.0,,'11111222,11111222,99999999' 
WAVCIS,ioos:station:WAVCIS:CSI09:1,2012-05-03T12:00:00Z,29.1015,-89.9782,0.0,0.479,240.0,,'11111222,11111222,99999999' 
WAVCIS,ioos:station:WAVCIS:CSI09:1,2012-05-03T13:00:00Z,29.1015,-89.9782,0.0,0.824,19.0,,'11111222,11111222,99999999' 
WAVCIS,ioos:station:WAVCIS:CSI09:1,2012-05-03T14:00:00Z,29.1015,-89.9782,0.0,1.206,74.0,,'11111222,11111222,99999999' 
WAVCIS,ioos:station:WAVCIS:CSI09:1,2012-05-03T15:00:00Z,29.1015,-89.9782,0.0,2.45,118.0,,'11111222,11111222,99999999' 
WAVCIS,ioos:station:WAVCIS:CSI09:1,2012-05-03T16:00:00Z,29.1015,-89.9782,0.0,2.344,124.0,,'11111222,11111222,99999999' 
WAVCIS,ioos:station:WAVCIS:CSI09:1,2012-05-03T17:00:00Z,29.1015,-89.9782,0.0,2.651,136.0,,'11111222,11111222,99999999' 
WAVCIS,ioos:station:WAVCIS:CSI09:1,2012-05-03T18:00:00Z,29.1015,-89.9782,0.0,4.12,125.0,,'11111222,11111222,99999999' 
WAVCIS,ioos:station:WAVCIS:CSI09:1,2012-05-03T19:00:00Z,29.1015,-89.9782,0.0,3.116,133.0,,'11111222,11111222,99999999' 
WAVCIS,ioos:station:WAVCIS:CSI09:1,2012-05-03T20:00:00Z,29.1015,-89.9782,0.0,3.588,160.0,,'11111222,11111222,99999999' 
WAVCIS,ioos:station:WAVCIS:CSI09:1,2012-05-03T21:00:00Z,29.1015,-89.9782,0.0,2.877,168.0,,'11111222,11111222,99999999' 
WAVCIS,ioos:station:WAVCIS:CSI09:1,2012-05-03T22:00:00Z,29.1015,-89.9782,0.0,2.4,154.0,,'11111222,11111222,99999999' 
WAVCIS,ioos:station:WAVCIS:CSI09:1,2012-05-03T23:00:00Z,29.1015,-89.9782,0.0,1.206,106.0,,'11111222,11111222,99999999' 
WAVCIS,ioos:station:WAVCIS:CSI09:1,2012-05-04T00:00:00Z,29.1015,-89.9782,0.0,2.729,129.0,,'11111222,11111222,99999999' 
WAVCIS,ioos:station:WAVCIS:CSI09:1,2012-05-04T01:00:00Z,29.1015,-89.9782,0.0,3.26,149.0,,'11111222,11111222,99999999' 
WAVCIS,ioos:station:WAVCIS:CSI09:1,2012-05-04T02:00:00Z,29.1015,-89.9782,0.0,4.071,145.0,,'11111222,11111222,99999999' 
WAVCIS,ioos:station:WAVCIS:CSI09:1,2012-05-04T03:00:00Z,29.1015,-89.9782,0.0,4.378,136.0,,'11111222,11111222,99999999' 
WAVCIS,ioos:station:WAVCIS:CSI09:1,2012-05-04T04:00:00Z,29.1015,-89.9782,0.0,4.526,123.0,,'11111222,11111222,99999999' 
WAVCIS,ioos:station:WAVCIS:CSI09:1,2012-05-04T05:00:00Z,29.1015,-89.9782,0.0,3.109,141.0,,'11111222,11111222,99999999' 
WAVCIS,ioos:station:WAVCIS:CSI09:1,2012-05-04T06:00:00Z,29.1015,-89.9782,0.0,2.606,162.0,,'11111222,11111222,99999999' 
WAVCIS,ioos:station:WAVCIS:CSI09:1,2012-05-04T07:00:00Z,29.1015,-89.9782,0.0,2.504,157.0,,'11111222,11111222,99999999' 
WAVCIS,ioos:station:WAVCIS:CSI09:1,2012-05-04T08:00:00Z,29.1015,-89.9782,0.0,1.08,153.0,,'11111222,11111222,99999999' 
WAVCIS,ioos:station:WAVCIS:CSI09:1,2012-05-04T09:00:00Z,29.1015,-89.9782,0.0,1.082,90.0,,'11111222,11111222,99999999' 
WAVCIS,ioos:station:WAVCIS:CSI09:1,2012-05-04T10:00:00Z,29.1015,-89.9782,0.0,2.176,111.0,,'11111222,11111222,99999999' 
WAVCIS,ioos:station:WAVCIS:CSI09:1,2012-05-04T11:00:00Z,29.1015,-89.9782,0.0,2.146,160.0,,'11111222,11111222,99999999' 
WAVCIS,ioos:station:WAVCIS:CSI09:1,2012-05-04T12:00:00Z,29.1015,-89.9782,0.0,1.969,177.0,,'11111222,11111222,99999999' 
WAVCIS,ioos:station:WAVCIS:CSI09:1,2012-05-04T13:00:00Z,29.1015,-89.9782,0.0,1.73,247.0,,'11111222,11111222,99999999' 
WAVCIS,ioos:station:WAVCIS:CSI09:1,2012-05-04T14:00:00Z,29.1015,-89.9782,0.0,0.191,285.0,,'11111222,11111222,99999999' 
WAVCIS,ioos:station:WAVCIS:CSI09:1,2012-05-04T15:00:00Z,29.1015,-89.9782,0.0,0.989,104.0,,'11111222,11111222,99999999' 
WAVCIS,ioos:station:WAVCIS:CSI09:1,2012-05-04T16:00:00Z,29.1015,-89.9782,0.0,0.71,144.0,,'11111222,11111222,99999999' 
WAVCIS,ioos:station:WAVCIS:CSI09:1,2012-05-04T17:00:00Z,29.1015,-89.9782,0.0,0.942,107.0,,'11111222,11111222,99999999' 
WAVCIS,ioos:station:WAVCIS:CSI09:1,2012-05-04T18:00:00Z,29.1015,-89.9782,0.0,1.464,153.0,,'11111222,11111222,99999999' 
WAVCIS,ioos:station:WAVCIS:CSI09:1,2012-05-04T19:00:00Z,29.1015,-89.9782,0.0,1.762,150.0,,'11111222,11111222,99999999' 
WAVCIS,ioos:station:WAVCIS:CSI09:1,2012-05-04T20:00:00Z,29.1015,-89.9782,0.0,2.352,168.0,,'11111222,11111222,99999999' 
WAVCIS,ioos:station:WAVCIS:CSI09:1,2012-05-04T21:00:00Z,29.1015,-89.9782,0.0,2.387,190.0,,'11111222,11111222,99999999' 
WAVCIS,ioos:station:WAVCIS:CSI09:1,2012-05-04T22:00:00Z,29.1015,-89.9782,0.0,2.96,164.0,,'11111222,11111222,99999999' 
WAVCIS,ioos:station:WAVCIS:CSI09:1,2012-05-04T23:00:00Z,29.1015,-89.9782,0.0,2.281,158.0,,'11111222,11111222,99999999' 
WAVCIS,ioos:station:WAVCIS:CSI09:1,2012-05-05T00:00:00Z,29.1015,-89.9782,0.0,2.381,153.0,,'11111222,11111222,99999999' 
WAVCIS,ioos:station:WAVCIS:CSI09:1,2012-05-05T01:00:00Z,29.1015,-89.9782,0.0,2.267,163.0,,'11111222,11111222,99999999' 
WAVCIS,ioos:station:WAVCIS:CSI09:1,2012-05-05T02:00:00Z,29.1015,-89.9782,0.0,2.043,149.0,,'11111222,11111222,99999999' 
WAVCIS,ioos:station:WAVCIS:CSI09:1,2012-05-05T03:00:00Z,29.1015,-89.9782,0.0,1.946,153.0,,'11111222,11111222,99999999' 
WAVCIS,ioos:station:WAVCIS:CSI09:1,2012-05-05T04:00:00Z,29.1015,-89.9782,0.0,2.563,153.0,,'11111222,11111222,99999999' 
WAVCIS,ioos:station:WAVCIS:CSI09:1,2012-05-05T05:00:00Z,29.1015,-89.9782,0.0,4.156,161.0,,'11111222,11111222,99999999' 
WAVCIS,ioos:station:WAVCIS:CSI09:1,2012-05-05T06:00:00Z,29.1015,-89.9782,0.0,3.692,168.0,,'11111222,11111222,99999999' 
WAVCIS,ioos:station:WAVCIS:CSI09:1,2012-05-05T07:00:00Z,29.1015,-89.9782,0.0,2.9,231.0,,'11111222,11111222,99999999' 
WAVCIS,ioos:station:WAVCIS:CSI09:1,2012-05-05T08:00:00Z,29.1015,-89.9782,0.0,1.967,216.0,,'11111222,11111222,99999999' 
WAVCIS,ioos:station:WAVCIS:CSI09:1,2012-05-05T09:00:00Z,29.1015,-89.9782,0.0,3.309,230.0,,'11111222,11111222,99999999' 
WAVCIS,ioos:station:WAVCIS:CSI09:1,2012-05-05T10:00:00Z,29.1015,-89.9782,0.0,3.365,233.0,,'11111222,11111222,99999999' 
WAVCIS,ioos:station:WAVCIS:CSI09:1,2012-05-05T11:00:00Z,29.1015,-89.9782,0.0,2.892,235.0,,'11111222,11111222,99999999' 
WAVCIS,ioos:station:WAVCIS:CSI09:1,2012-05-05T12:00:00Z,29.1015,-89.9782,0.0,3.033,250.0,,'11111222,11111222,99999999' 
WAVCIS,ioos:station:WAVCIS:CSI09:1,2012-05-05T13:00:00Z,29.1015,-89.9782,0.0,2.174,244.0,,'11111222,11111222,99999999' 
WAVCIS,ioos:station:WAVCIS:CSI09:1,2012-05-05T14:00:00Z,29.1015,-89.9782,0.0,3.106,235.0,,'11111222,11111222,99999999' 
WAVCIS,ioos:station:WAVCIS:CSI09:1,2012-05-05T15:00:00Z,29.1015,-89.9782,0.0,1.979,173.0,,'11111222,11111222,99999999' 
WAVCIS,ioos:station:WAVCIS:CSI09:1,2012-05-05T16:00:00Z,29.1015,-89.9782,0.0,1.036,161.0,,'11111222,11111222,99999999' 
WAVCIS,ioos:station:WAVCIS:CSI09:1,2012-05-05T17:00:00Z,29.1015,-89.9782,0.0,1.416,162.0,,'11111222,11111222,99999999' 
WAVCIS,ioos:station:WAVCIS:CSI09:1,2012-05-05T18:00:00Z,29.1015,-89.9782,0.0,1.211,145.0,,'11111222,11111222,99999999' 
WAVCIS,ioos:station:WAVCIS:CSI09:1,2012-05-05T19:00:00Z,29.1015,-89.9782,0.0,2.484,140.0,,'11111222,11111222,99999999' 
WAVCIS,ioos:station:WAVCIS:CSI09:1,2012-05-05T20:00:00Z,29.1015,-89.9782,0.0,2.175,139.0,,'11111222,11111222,99999999' 
WAVCIS,ioos:station:WAVCIS:CSI09:1,2012-05-05T21:00:00Z,29.1015,-89.9782,0.0,3.569,164.0,,'11111222,11111222,99999999' 
WAVCIS,ioos:station:WAVCIS:CSI09:1,2012-05-05T22:00:00Z,29.1015,-89.9782,0.0,3.761,159.0,,'11111222,11111222,99999999' 
WAVCIS,ioos:station:WAVCIS:CSI09:1,2012-05-05T23:00:00Z,29.1015,-89.9782,0.0,3.578,167.0,,'11111222,11111222,99999999' 
WAVCIS,ioos:station:WAVCIS:CSI09:1,2012-05-06T00:00:00Z,29.1015,-89.9782,0.0,3.204,166.0,,'11111222,11111222,99999999' 
WAVCIS,ioos:station:WAVCIS:CSI09:1,2012-05-06T01:00:00Z,29.1015,-89.9782,0.0,2.658,162.0,,'11111222,11111222,99999999' 
WAVCIS,ioos:station:WAVCIS:CSI09:1,2012-05-06T02:00:00Z,29.1015,-89.9782,0.0,2.125,178.0,,'11111222,11111222,99999999' 
WAVCIS,ioos:station:WAVCIS:CSI09:1,2012-05-06T03:00:00Z,29.1015,-89.9782,0.0,3.345,170.0,,'11111222,11111222,99999999' 
WAVCIS,ioos:station:WAVCIS:CSI09:1,2012-05-06T04:00:00Z,29.1015,-89.9782,0.0,3.121,168.0,,'11111222,11111222,99999999' 
WAVCIS,ioos:station:WAVCIS:CSI09:1,2012-05-06T05:00:00Z,29.1015,-89.9782,0.0,2.97,175.0,,'11111222,11111222,99999999' 
WAVCIS,ioos:station:WAVCIS:CSI09:1,2012-05-06T06:00:00Z,29.1015,-89.9782,0.0,3.176,166.0,,'11111222,11111222,99999999' 
WAVCIS,ioos:station:WAVCIS:CSI09:1,2012-05-06T07:00:00Z,29.1015,-89.9782,0.0,2.164,183.0,,'11111222,11111222,99999999' 
WAVCIS,ioos:station:WAVCIS:CSI09:1,2012-05-06T08:00:00Z,29.1015,-89.9782,0.0,2.782,201.0,,'11111222,11111222,99999999' 
WAVCIS,ioos:station:WAVCIS:CSI09:1,2012-05-06T09:00:00Z,29.1015,-89.9782,0.0,1.81,208.0,,'11111222,11111222,99999999' 
WAVCIS,ioos:station:WAVCIS:CSI09:1,2012-05-06T10:00:00Z,29.1015,-89.9782,0.0,2.955,169.0,,'11111222,11111222,99999999' 
WAVCIS,ioos:station:WAVCIS:CSI09:1,2012-05-06T11:00:00Z,29.1015,-89.9782,0.0,1.78,170.0,,'11111222,11111222,99999999' 
WAVCIS,ioos:station:WAVCIS:CSI09:1,2012-05-06T12:00:00Z,29.1015,-89.9782,0.0,1.642,232.0,,'11111222,11111222,99999999' 
WAVCIS,ioos:station:WAVCIS:CSI09:1,2012-05-06T13:00:00Z,29.1015,-89.9782,0.0,2.089,228.0,,'11111222,11111222,99999999' 
WAVCIS,ioos:station:WAVCIS:CSI09:1,2012-05-06T14:00:00Z,29.1015,-89.9782,0.0,1.808,221.0,,'11111222,11111222,99999999' 
WAVCIS,ioos:station:WAVCIS:CSI09:1,2012-05-06T15:00:00Z,29.1015,-89.9782,0.0,1.607,208.0,,'11111222,11111222,99999999' 
WAVCIS,ioos:station:WAVCIS:CSI09:1,2012-05-06T16:00:00Z,29.1015,-89.9782,0.0,2.058,195.0,,'11111222,11111222,99999999' 
WAVCIS,ioos:station:WAVCIS:CSI09:1,2012-05-06T17:00:00Z,29.1015,-89.9782,0.0,3.109,28.0,,'11111222,11111222,99999999' 
WAVCIS,ioos:station:WAVCIS:CSI09:1,2012-05-06T18:00:00Z,29.1015,-89.9782,0.0,0.953,63.0,,'11111222,11111222,99999999' 
WAVCIS,ioos:station:WAVCIS:CSI09:1,2012-05-06T19:00:00Z,29.1015,-89.9782,0.0,2.28,158.0,,'11111222,11111222,99999999' 
WAVCIS,ioos:station:WAVCIS:CSI09:1,2012-05-06T20:00:00Z,29.1015,-89.9782,0.0,3.076,152.0,,'11111222,11111222,99999999' 
WAVCIS,ioos:station:WAVCIS:CSI09:1,2012-05-06T21:00:00Z,29.1015,-89.9782,0.0,3.557,146.0,,'11111222,11111222,99999999' 
WAVCIS,ioos:station:WAVCIS:CSI09:1,2012-05-06T22:00:00Z,29.1015,-89.9782,0.0,2.794,153.0,,'11111222,11111222,99999999' 
WAVCIS,ioos:station:WAVCIS:CSI09:1,2012-05-06T23:00:00Z,29.1015,-89.9782,0.0,3.038,175.0,,'11111222,11111222,99999999' 
WAVCIS,ioos:station:WAVCIS:CSI09:1,2012-05-07T00:00:00Z,29.1015,-89.9782,0.0,2.547,137.0,,'11111222,11111222,99999999' 
WAVCIS,ioos:station:WAVCIS:CSI09:1,2012-05-07T01:00:00Z,29.1015,-89.9782,0.0,2.887,212.0,,'11111222,11111222,99999999' 
WAVCIS,ioos:station:WAVCIS:CSI09:1,2012-05-07T02:00:00Z,29.1015,-89.9782,0.0,3.156,179.0,,'11111222,11111222,99999999' 
WAVCIS,ioos:station:WAVCIS:CSI09:1,2012-05-07T03:00:00Z,29.1015,-89.9782,0.0,3.198,158.0,,'11111222,11111222,99999999' 
WAVCIS,ioos:station:WAVCIS:CSI09:1,2012-05-07T04:00:00Z,29.1015,-89.9782,0.0,3.224,169.0,,'11111222,11111222,99999999' 
WAVCIS,ioos:station:WAVCIS:CSI09:1,2012-05-07T05:00:00Z,29.1015,-89.9782,0.0,2.025,218.0,,'11111222,11111222,99999999' 
WAVCIS,ioos:station:WAVCIS:CSI09:1,2012-05-07T06:00:00Z,29.1015,-89.9782,0.0,4.874,231.0,,'11111222,11111222,99999999' 
WAVCIS,ioos:station:WAVCIS:CSI09:1,2012-05-07T07:00:00Z,29.1015,-89.9782,0.0,4.487,229.0,,'11111222,11111222,99999999' 
WAVCIS,ioos:station:WAVCIS:CSI09:1,2012-05-07T08:00:00Z,29.1015,-89.9782,0.0,3.193,256.0,,'11111222,11111222,99999999' 
WAVCIS,ioos:station:WAVCIS:CSI09:1,2012-05-07T09:00:00Z,29.1015,-89.9782,0.0,3.063,269.0,,'11111222,11111222,99999999' 
WAVCIS,ioos:station:WAVCIS:CSI09:1,2012-05-07T10:00:00Z,29.1015,-89.9782,0.0,3.158,280.0,,'11111222,11111222,99999999' 
WAVCIS,ioos:station:WAVCIS:CSI09:1,2012-05-07T11:00:00Z,29.1015,-89.9782,0.0,2.167,295.0,,'11111222,11111222,99999999' 
WAVCIS,ioos:station:WAVCIS:CSI09:1,2012-05-07T12:00:00Z,29.1015,-89.9782,0.0,2.055,282.0,,'11111222,11111222,99999999' 
WAVCIS,ioos:station:WAVCIS:CSI09:1,2012-05-07T13:00:00Z,29.1015,-89.9782,0.0,4.28,3.0,,'11111222,11111222,99999999' 
WAVCIS,ioos:station:WAVCIS:CSI09:1,2012-05-07T14:00:00Z,29.1015,-89.9782,0.0,5.489,80.0,,'11111222,11111222,99999999' 
WAVCIS,ioos:station:WAVCIS:CSI09:1,2012-05-07T15:00:00Z,29.1015,-89.9782,0.0,2.046,90.0,,'11111222,11111222,99999999' 
WAVCIS,ioos:station:WAVCIS:CSI09:1,2012-05-07T16:00:00Z,29.1015,-89.9782,0.0,3.126,108.0,,'11111222,11111222,99999999' 
WAVCIS,ioos:station:WAVCIS:CSI09:1,2012-05-07T17:00:00Z,29.1015,-89.9782,0.0,2.872,96.0,,'11111222,11111222,99999999' 
WAVCIS,ioos:station:WAVCIS:CSI09:1,2012-05-07T18:00:00Z,29.1015,-89.9782,0.0,6.828,47.0,,'11111222,11111222,99999999' 
WAVCIS,ioos:station:WAVCIS:CSI09:1,2012-05-07T19:00:00Z,29.1015,-89.9782,0.0,3.722,39.0,,'11111222,11111222,99999999' 
WAVCIS,ioos:station:WAVCIS:CSI09:1,2012-05-07T20:00:00Z,29.1015,-89.9782,0.0,3.496,70.0,,'11111222,11111222,99999999' 
WAVCIS,ioos:station:WAVCIS:CSI09:1,2012-05-07T21:00:00Z,29.1015,-89.9782,0.0,3.072,106.0,,'11111222,11111222,99999999' 
WAVCIS,ioos:station:WAVCIS:CSI09:1,2012-05-07T22:00:00Z,29.1015,-89.9782,0.0,2.061,97.0,,'11111222,11111222,99999999' 
WAVCIS,ioos:station:WAVCIS:CSI09:1,2012-05-07T23:00:00Z,29.1015,-89.9782,0.0,1.774,133.0,,'11111222,11111222,99999999' 
WAVCIS,ioos:station:WAVCIS:CSI09:1,2012-05-08T00:00:00Z,29.1015,-89.9782,0.0,4.712,142.0,,'11111222,11111222,99999999' 
WAVCIS,ioos:station:WAVCIS:CSI09:1,2012-05-08T01:00:00Z,29.1015,-89.9782,0.0,2.09,133.0,,'11111222,11111222,99999999' 
WAVCIS,ioos:station:WAVCIS:CSI09:1,2012-05-08T02:00:00Z,29.1015,-89.9782,0.0,2.089,82.0,,'11111222,11111222,99999999' 
WAVCIS,ioos:station:WAVCIS:CSI09:1,2012-05-08T03:00:00Z,29.1015,-89.9782,0.0,4.653,346.0,,'11111222,11111222,99999999' 
WAVCIS,ioos:station:WAVCIS:CSI09:1,2012-05-08T04:00:00Z,29.1015,-89.9782,0.0,5.396,15.0,,'11111222,11111222,99999999' 
WAVCIS,ioos:station:WAVCIS:CSI09:1,2012-05-08T05:00:00Z,29.1015,-89.9782,0.0,6.018,30.0,,'11111222,11111222,99999999' 
WAVCIS,ioos:station:WAVCIS:CSI09:1,2012-05-08T06:00:00Z,29.1015,-89.9782,0.0,4.088,121.0,,'11111222,11111222,99999999' 
WAVCIS,ioos:station:WAVCIS:CSI09:1,2012-05-08T07:00:00Z,29.1015,-89.9782,0.0,4.964,165.0,,'11111222,11111222,99999999' 
WAVCIS,ioos:station:WAVCIS:CSI09:1,2012-05-08T08:00:00Z,29.1015,-89.9782,0.0,3.178,191.0,,'11111222,11111222,99999999' 
WAVCIS,ioos:station:WAVCIS:CSI09:1,2012-05-08T09:00:00Z,29.1015,-89.9782,0.0,1.585,255.0,,'11111222,11111222,99999999' 
WAVCIS,ioos:station:WAVCIS:CSI09:1,2012-05-08T10:00:00Z,29.1015,-89.9782,0.0,2.411,280.0,,'11111222,11111222,99999999' 
WAVCIS,ioos:station:WAVCIS:CSI09:1,2012-05-08T11:00:00Z,29.1015,-89.9782,0.0,5.082,345.0,,'11111222,11111222,99999999' 
WAVCIS,ioos:station:WAVCIS:CSI09:1,2012-05-08T12:00:00Z,29.1015,-89.9782,0.0,3.167,352.0,,'11111222,11111222,99999999' 
WAVCIS,ioos:station:WAVCIS:CSI09:1,2012-05-08T13:00:00Z,29.1015,-89.9782,0.0,3.349,358.0,,'11111222,11111222,99999999' 
WAVCIS,ioos:station:WAVCIS:CSI09:1,2012-05-08T14:00:00Z,29.1015,-89.9782,0.0,3.511,38.0,,'11111222,11111222,99999999' 
WAVCIS,ioos:station:WAVCIS:CSI09:1,2012-05-08T15:00:00Z,29.1015,-89.9782,0.0,5.739,40.0,,'11111222,11111222,99999999' 
WAVCIS,ioos:station:WAVCIS:CSI09:1,2012-05-08T16:00:00Z,29.1015,-89.9782,0.0,5.857,33.0,,'11111222,11111222,99999999' 
WAVCIS,ioos:station:WAVCIS:CSI09:1,2012-05-08T17:00:00Z,29.1015,-89.9782,0.0,7.0,55.0,,'11111222,11111222,99999999' 
WAVCIS,ioos:station:WAVCIS:CSI09:1,2012-05-08T18:00:00Z,29.1015,-89.9782,0.0,4.135,56.0,,'11111222,11111222,99999999' 
WAVCIS,ioos:station:WAVCIS:CSI09:1,2012-05-08T19:00:00Z,29.1015,-89.9782,0.0,3.418,57.0,,'11111222,11111222,99999999' 
WAVCIS,ioos:station:WAVCIS:CSI09:1,2012-05-08T20:00:00Z,29.1015,-89.9782,0.0,3.596,116.0,,'11111222,11111222,99999999' 
WAVCIS,ioos:station:WAVCIS:CSI09:1,2012-05-08T21:00:00Z,29.1015,-89.9782,0.0,2.865,136.0,,'11111222,11111222,99999999' 
WAVCIS,ioos:station:WAVCIS:CSI09:1,2012-05-08T22:00:00Z,29.1015,-89.9782,0.0,3.183,135.0,,'11111222,11111222,99999999' 
WAVCIS,ioos:station:WAVCIS:CSI09:1,2012-05-08T23:00:00Z,29.1015,-89.9782,0.0,2.107,121.0,,'11111222,11111222,99999999' 
WAVCIS,ioos:station:WAVCIS:CSI09:1,2012-05-09T00:00:00Z,29.1015,-89.9782,0.0,2.265,122.0,,'11111222,11111222,99999999' 
WAVCIS,ioos:station:WAVCIS:CSI09:1,2012-05-09T01:00:00Z,29.1015,-89.9782,0.0,2.926,162.0,,'11111222,11111222,99999999' 
WAVCIS,ioos:station:WAVCIS:CSI09:1,2012-05-09T02:00:00Z,29.1015,-89.9782,0.0,3.392,225.0,,'11111222,11111222,99999999' 
WAVCIS,ioos:station:WAVCIS:CSI09:1,2012-05-09T03:00:00Z,29.1015,-89.9782,0.0,3.824,248.0,,'11111222,11111222,99999999' 
WAVCIS,ioos:station:WAVCIS:CSI09:1,2012-05-09T04:00:00Z,29.1015,-89.9782,0.0,2.808,280.0,,'11111222,11111222,99999999' 
WAVCIS,ioos:station:WAVCIS:CSI09:1,2012-05-09T05:00:00Z,29.1015,-89.9782,0.0,2.96,277.0,,'11111222,11111222,99999999' 
WAVCIS,ioos:station:WAVCIS:CSI09:1,2012-05-09T06:00:00Z,29.1015,-89.9782,0.0,4.018,282.0,,'11111222,11111222,99999999' 